Regional Weather Roundup
Issued by NWS

Home | Current Version | Previous Version | Graphics & Text | Print | Product List | Glossary On
Versions: 1 2 3 4 5 6 7 8 9 10 11 12 13 14 15 16 17 18 19 20 21 22 23 24 25 26 27 28 29 30 31 32 33 34 35 36 37 38 39 40 41 42 43 44 45 46 47 48 49 50
000
ASUS43 KIND 031509
RWRIN

WEATHER ROUNDUP FOR INDIANA
NATIONAL WEATHER SERVICE INDIANAPOLIS IN
1000 AM EST SAT DEC 03 2016

NOTE: "FAIR" INDICATES FEW OR NO CLOUDS BELOW 12,000 FEET WITH NO
SIGNIFICANT WEATHER AND/OR OBSTRUCTIONS TO VISIBILITY.

* - STATION DOES NOT REPORT WEATHER SUCH AS PRECIPITATION OR FOG.

+ - STATION NOT QUALITY CONTROLLED BY THE NATIONAL WEATHER SERVICE.
    USE DATA WITH CAUTION...ESPECIALLY DEWPOINT AND RELATIVE
    HUMIDITY OBSERVATIONS.

INZ001>003-010>013-019-020-031600-
NORTHWEST INDIANA

CITY           SKY/WX    TMP DP  RH WIND       PRES   REMARKS
GARY /AIRPORT/ CLOUDY    34  23  64 NW10      30.35F WCI  26
KNOX *+        CLOUDY    32   9  37 NW8       30.35F WCI  25
LA PORTE +     CLOUDY    35  29  81 W7        30.34F WCI  29
MICHIGAN CITY+ CLOUDY    34  27  75 CALM      30.35S
MONTICELLO +   CLOUDY    34  23  62 NW6       30.33F WCI  29
RENSSELAER +   CLOUDY    34  28  80 NW6       30.34F WCI  29
VALPARAISO     SUNNY     34  23  64 NW10      30.33F WCI  26

$$

LMZ046-743>745-031600-
SOUTHERN LAKE MICHIGAN

STATION/POSITION TIME  TEMP    WIND        PRES    WAVE
                       AIR SEA DIR/SP/G            HT
                 (UTC) (F)     (DEG/KT/KT) (MB)    (FT)
BURNS HARBOR     1500   34     270/  3/ 14 1027.8
MICHIGAN CITY    1440   35     210/  9/ 11   N/A

$$

INZ004-005-014>016-021>024-031600-
NORTH CENTRAL INDIANA

CITY           SKY/WX    TMP DP  RH WIND       PRES   REMARKS
ELKHART        CLOUDY    36  27  69 W6        30.34R
GOSHEN         CLOUDY    34  27  75 W6        30.34R WCI  29
LOGANSPORT +   CLOUDY    34  27  75 N3        30.35F
PERU/GRISSOM   CLOUDY    35  26  70 N5        30.33S WCI  31
ROCHESTER +    CLOUDY    36  28  75 NW8       30.34F
SOUTH BEND     CLOUDY    33  26  75 SW5       30.35R WCI  29
WARSAW +       CLOUDY    32  25  74 W6        30.34S WCI  26

$$

INZ006>009-017-018-025>027-031600-
NORTHEAST INDIANA

CITY           SKY/WX    TMP DP  RH WIND       PRES   REMARKS
ANGOLA *+      CLOUDY    36  28  75 W5        30.32S
AUBURN +       CLOUDY    34  27  75 W7        30.33F WCI  28
FORT WAYNE     CLOUDY    35  26  69 W9        30.35S WCI  28
HUNTINGTON +   CLOUDY    35  24  66 W3        30.35S
KENDALLVILLE + CLOUDY    33  28  82 W6        30.33S WCI  28

$$

INZ028-029-035-036-043>045-051>053-031600-
WEST CENTRAL INDIANA

CITY           SKY/WX    TMP DP  RH WIND       PRES   REMARKS
CRAWFORDSVL +  CLOUDY    34  27  76 NW8       30.35S WCI  27
GREENCASTLE +  CLOUDY    34  32  93 NE3       30.35F
LAFAYETTE      CLOUDY    34  27  75 N8        30.34F WCI  27
TERRE HAUTE    CLOUDY    37  28  70 CALM      30.37F

$$

INZ030>032-037>040-046>048-054>057-064-065-031600-
CENTRAL INDIANA

CITY           SKY/WX    TMP DP  RH WIND       PRES   REMARKS
ANDERSON       CLOUDY    36  27  69 CALM      30.34F
CP ATTERBURY + CLOUDY    37  28  70 NW6       30.37S
COLUMBUS       CLOUDY    37  30  75 W6        30.37F
FISHERS *+     CLOUDY    34  30  86 NW3       30.35S
FRANKFORT +    CLOUDY    37  29  73 N6        30.35S
GREENWOOD *+   CLOUDY    36  30  77 NW6       30.35F
INDIANAPOLIS   CLOUDY    37  28  70 N5        30.35F
-EAGLE CREEK   MOSUNNY   38  28  67 N3        30.34F
KOKOMO +       CLOUDY    36  26  67 NW6       30.35S
MARION +       CLOUDY    35  27  73 N3        30.35S
MT COMFORT *+  CLOUDY    36  30  80 N8        30.34F
SHELBYVILLE    CLOUDY    38  28  67 NW7       30.34F
ZIONSVILLE +   MOSUNNY   35  28  75 CALM      30.34F

$$

INZ033-034-041-042-049-050-058-059-031600-
EAST CENTRAL INDIANA

CITY           SKY/WX    TMP DP  RH WIND       PRES   REMARKS
MUNCIE         CLOUDY    38  26  62 N5        30.34F

$$

INZ060-061-067>069-081>083-085>088-031600-
SOUTHWEST INDIANA

CITY           SKY/WX    TMP DP  RH WIND       PRES   REMARKS
EVANSVILLE     PTSUNNY   40  34  79 CALM      30.38S
HUNTINGBURG *+ CLOUDY    39  32  75 E6        30.36F
WASHINGTON +   CLOUDY    39  35  83 NE3       30.36F

$$

INZ062-063-066-070>080-084-089>092-031600-
SOUTH CENTRAL AND SOUTHEAST INDIANA

CITY           SKY/WX    TMP DP  RH WIND       PRES   REMARKS
BLOOMINGTON    CLOUDY    39  27  62 CALM      30.36F
MADISON *+     CLOUDY    39  32  75 CALM      30.40S
NORTH VERNON + CLOUDY    39  34  81 CALM      30.38R
SEYMOUR +      CLOUDY    41  30  65 CALM      30.38F

$$





USA.gov is the U.S. government's official web portal to all federal, state and local government web resources and services.